TimeCDT,TemperatureF,Dew PointF,Humidity,Sea Level PressureIn,VisibilityMPH,Wind Direction,Wind SpeedMPH,Gust SpeedMPH,PrecipitationIn,Events,Conditions,WindDirDegrees,DateUTC
12:15 AM,63.1,56.7,79,30.11,10.0,North,5.8,-,N/A,,Clear,10,2013-05-11 05:15:00
12:35 AM,62.1,56.3,81,30.11,10.0,North,5.8,-,N/A,,Clear,10,2013-05-11 05:35:00
12:55 AM,61.3,56.3,83,30.12,10.0,North,3.5,-,N/A,,Clear,350,2013-05-11 05:55:00
1:15 AM,60.6,58.1,91,30.12,10.0,NNW,3.5,-,N/A,,Clear,340,2013-05-11 06:15:00
1:35 AM,59.9,57.4,91,30.12,10.0,Calm,Calm,-,N/A,,Scattered Clouds,0,2013-05-11 06:35:00
1:55 AM,60.3,55.8,85,30.11,10.0,Calm,Calm,-,N/A,,Scattered Clouds,0,2013-05-11 06:55:00
2:15 AM,59.0,56.7,92,30.11,10.0,Calm,Calm,-,N/A,,Clear,0,2013-05-11 07:15:00
2:35 AM,58.3,54.7,88,30.11,10.0,Calm,Calm,-,N/A,,Clear,0,2013-05-11 07:35:00
2:55 AM,57.7,55.9,94,30.11,10.0,Calm,Calm,-,N/A,,Clear,0,2013-05-11 07:55:00
3:15 AM,57.0,54.7,92,30.11,10.0,Calm,Calm,-,N/A,,Clear,0,2013-05-11 08:15:00
3:35 AM,55.8,54.5,96,30.13,10.0,West,3.5,-,N/A,,Clear,280,2013-05-11 08:35:00
3:55 AM,55.6,53.6,93,30.13,10.0,West,3.5,-,N/A,,Clear,280,2013-05-11 08:55:00
4:15 AM,55.0,53.2,94,30.13,10.0,West,3.5,-,0.01,,Clear,280,2013-05-11 09:15:00
4:35 AM,55.9,54.1,94,30.13,10.0,NNW,4.6,-,0.01,,Clear,330,2013-05-11 09:35:00
4:55 AM,56.7,53.2,88,30.12,10.0,NNW,8.1,-,0.01,,Clear,340,2013-05-11 09:55:00
5:15 AM,56.3,53.4,90,30.13,10.0,NNW,8.1,-,N/A,,Clear,340,2013-05-11 10:15:00
5:35 AM,55.6,53.2,92,30.14,10.0,NNW,5.8,-,N/A,,Clear,330,2013-05-11 10:35:00
5:55 AM,54.0,52.3,94,30.15,10.0,WSW,4.6,-,N/A,,Clear,240,2013-05-11 10:55:00
6:15 AM,54.3,52.9,95,30.16,10.0,Calm,Calm,-,N/A,,Clear,0,2013-05-11 11:15:00
6:35 AM,54.3,52.9,95,30.17,10.0,Calm,Calm,-,N/A,,Clear,0,2013-05-11 11:35:00
6:55 AM,53.6,52.2,95,30.18,10.0,Calm,Calm,-,N/A,,Clear,0,2013-05-11 11:55:00
7:35 AM,55.9,54.0,93,30.18,10.0,Calm,Calm,-,N/A,,Clear,0,2013-05-11 12:35:00
7:55 AM,56.8,55.2,94,30.18,10.0,Calm,Calm,-,N/A,,Clear,0,2013-05-11 12:55:00
8:15 AM,58.6,55.2,88,30.19,10.0,NNW,3.5,-,N/A,,Clear,340,2013-05-11 13:15:00
8:35 AM,60.1,54.9,83,30.20,10.0,Calm,Calm,-,N/A,,Clear,0,2013-05-11 13:35:00
8:55 AM,62.2,54.3,75,30.19,10.0,North,4.6,-,N/A,,Clear,360,2013-05-11 13:55:00
9:15 AM,63.7,54.9,73,30.19,10.0,Calm,Calm,-,N/A,,Clear,0,2013-05-11 14:15:00
9:35 AM,66.2,54.7,66,30.19,10.0,NNE,5.8,-,N/A,,Clear,30,2013-05-11 14:35:00
9:55 AM,67.8,55.0,64,30.19,10.0,NNE,5.8,-,N/A,,Clear,30,2013-05-11 14:55:00
10:15 AM,69.1,52.9,56,30.19,10.0,North,5.8,-,N/A,,Clear,350,2013-05-11 15:15:00
10:35 AM,70.7,52.5,52,30.19,10.0,North,8.1,-,N/A,,Clear,350,2013-05-11 15:35:00
10:55 AM,72.1,50.9,47,30.19,10.0,North,11.5,-,N/A,,Clear,360,2013-05-11 15:55:00
11:15 AM,73.9,49.5,42,30.19,10.0,North,10.4,-,N/A,,Clear,350,2013-05-11 16:15:00
11:35 AM,75.0,47.5,38,30.20,10.0,NNE,9.2,-,N/A,,Clear,30,2013-05-11 16:35:00
11:55 AM,75.6,46.6,36,30.19,10.0,North,11.5,18.4,N/A,,Clear,360,2013-05-11 16:55:00
12:15 PM,76.5,46.4,34,30.19,10.0,North,8.1,20.7,N/A,,Clear,10,2013-05-11 17:15:00
12:35 PM,77.2,45.7,33,30.18,10.0,NE,12.7,16.1,N/A,,Scattered Clouds,40,2013-05-11 17:35:00
12:55 PM,78.3,43.9,29,30.18,7.0,North,12.7,19.6,N/A,,Scattered Clouds,350,2013-05-11 17:55:00
1:15 PM,78.6,43.3,29,30.18,7.0,North,16.1,23.0,N/A,,Scattered Clouds,360,2013-05-11 18:15:00
1:35 PM,80.1,42.4,26,30.18,7.0,NE,12.7,19.6,N/A,,Scattered Clouds,40,2013-05-11 18:35:00
1:55 PM,79.0,41.0,26,30.17,7.0,NNE,10.4,17.3,N/A,,Mostly Cloudy,20,2013-05-11 18:55:00
2:15 PM,80.4,39.6,23,30.17,7.0,North,11.5,-,N/A,,Scattered Clouds,350,2013-05-11 19:15:00
2:35 PM,80.6,39.4,23,30.16,7.0,NE,15.0,19.6,N/A,,Mostly Cloudy,50,2013-05-11 19:35:00
2:55 PM,80.2,40.3,24,30.16,7.0,North,6.9,16.1,N/A,,Mostly Cloudy,10,2013-05-11 19:55:00
3:15 PM,81.9,39.2,22,30.15,10.0,ENE,6.9,-,N/A,,Mostly Cloudy,60,2013-05-11 20:15:00
3:35 PM,81.7,38.1,21,30.14,10.0,North,15.0,19.6,N/A,,Mostly Cloudy,10,2013-05-11 20:35:00
3:55 PM,82.9,38.3,20,30.13,10.0,NE,13.8,18.4,N/A,,Scattered Clouds,40,2013-05-11 20:55:00
4:15 PM,84.6,39.4,20,30.13,10.0,North,9.2,-,N/A,,Scattered Clouds,10,2013-05-11 21:15:00
4:35 PM,83.3,37.4,19,30.12,10.0,North,10.4,19.6,N/A,,Scattered Clouds,360,2013-05-11 21:35:00
4:55 PM,83.7,38.3,20,30.11,10.0,ENE,11.5,19.6,N/A,,Scattered Clouds,60,2013-05-11 21:55:00
5:15 PM,82.6,37.6,20,30.11,10.0,NE,15.0,23.0,N/A,,Scattered Clouds,40,2013-05-11 22:15:00
5:35 PM,82.6,37.4,20,30.11,10.0,North,15.0,20.7,N/A,,Scattered Clouds,10,2013-05-11 22:35:00
5:55 PM,83.3,37.8,20,30.10,10.0,ENE,15.0,23.0,N/A,,Scattered Clouds,60,2013-05-11 22:55:00
6:15 PM,82.2,37.0,20,30.10,10.0,NE,13.8,19.6,N/A,,Scattered Clouds,40,2013-05-11 23:15:00
6:35 PM,82.4,36.9,20,30.10,10.0,NE,12.7,16.1,N/A,,Scattered Clouds,50,2013-05-11 23:35:00
6:55 PM,82.0,37.4,20,30.10,10.0,ENE,13.8,19.6,N/A,,Scattered Clouds,60,2013-05-11 23:55:00
7:15 PM,81.5,36.7,20,30.11,10.0,NE,11.5,-,N/A,,Scattered Clouds,40,2013-05-12 00:15:00
7:35 PM,79.9,37.9,22,30.11,10.0,NE,8.1,-,N/A,,Clear,40,2013-05-12 00:35:00
7:55 PM,78.8,38.1,23,30.12,10.0,ENE,10.4,16.1,N/A,,Clear,60,2013-05-12 00:55:00
8:15 PM,77.5,38.3,24,30.13,10.0,ENE,8.1,-,N/A,,Clear,70,2013-05-12 01:15:00
8:35 PM,74.8,40.1,29,30.15,10.0,East,5.8,-,N/A,,Clear,80,2013-05-12 01:35:00
8:55 PM,73.0,41.0,31,30.16,10.0,East,4.6,-,N/A,,Clear,80,2013-05-12 01:55:00
9:15 PM,71.6,41.7,34,30.16,10.0,East,5.8,-,N/A,,Clear,90,2013-05-12 02:15:00
9:35 PM,70.9,42.1,35,30.17,10.0,East,5.8,-,N/A,,Clear,90,2013-05-12 02:35:00
10:15 PM,68.2,43.0,40,30.19,10.0,ESE,3.5,-,N/A,,Clear,120,2013-05-12 03:15:00
10:35 PM,67.3,43.3,42,30.20,10.0,ESE,4.6,-,N/A,,Clear,120,2013-05-12 03:35:00
10:55 PM,66.6,44.1,44,30.20,10.0,SE,4.6,-,N/A,,Scattered Clouds,130,2013-05-12 03:55:00
11:15 PM,63.1,50.9,64,30.20,10.0,Calm,Calm,-,N/A,,Scattered Clouds,0,2013-05-12 04:15:00
11:35 PM,63.7,48.0,57,30.20,10.0,Calm,Calm,-,0.01,,Clear,0,2013-05-12 04:35:00
11:55 PM,65.1,45.5,49,30.21,10.0,North,8.1,-,0.01,,Clear,10,2013-05-12 04:55:00